Regional Weather Roundup
Issued by NWS Kansas City/Pleasant Hill, MO

Home | Current Version | Previous Version | Graphics & Text | Print | Product List | Glossary Off
Versions: 1 2 3 4 5 6 7 8 9 10 11 12 13 14 15 16 17 18 19 20 21 22 23 24 25 26 27 28 29 30 31 32 33 34 35 36 37 38 39 40 41 42 43 44 45 46 47 48

757
ASUS43 KEAX 231410
RWREAX

WEATHER ROUNDUP FOR EASTERN KANSAS AND NORTHWEST MISSOURI
NATIONAL WEATHER SERVICE KANSAS CITY/PLEASANT HILL MO
900 AM CDT MON MAY 23 2016

KSZ040-057-103>105-MOZ028-029-037-043-231500-
...KANSAS CITY METROPOLITAN AREA...

CITY           SKY/WX    TMP DP  RH WIND       PRES   REMARKS
K.C. INTL      CLOUDY    69  57  65 S9        29.92R
K.C. DOWNTOWN  PTSUNNY   71  57  61 S12       29.90R
LEES SUMMIT    SUNNY     70  56  61 S14       29.92R
OLATHE - IXD   CLOUDY    68  57  68 S10       29.92R
OLATHE - OJC   PTSUNNY   68  56  65 S12       29.91R
LAWRENCE       CLOUDY    69  57  65 S7        29.91R

$$

MOZ001>008-011>017-020>025-030>033-038>040-044>046-053-054-231500-
...NORTHERN AND CENTRAL MISSOURI...

CITY           SKY/WX    TMP DP  RH WIND       PRES   REMARKS
ST. JOSEPH     TSTM      67  59  75 S8        29.90S
MOSBY          SUNNY     68  55  64 S7        29.91R
WARRENSBURG    MOSUNNY   68  54  60 S15G21    29.93R
WHITEMAN AFB   MOSUNNY   69  54  57 S15       29.92F
CLINTON        MOSUNNY   70  54  56 SE10G18   29.94S
SEDALIA        MOSUNNY   71  52  50 S15       29.97R
WARSAW         NOT AVBL
CHILLICOTHE      N/A     69  57  65 SE8       29.94R
KIRKSVILLE     SUNNY     71  54  54 S15       29.96F

$$

MOZ041-047>049-056>058-063>065-088>090-097-231500-
...EASTERN AND SOUTHERN MISSOURI...

CITY           SKY/WX    TMP DP  RH WIND       PRES   REMARKS
ST. LOUIS INTL CLOUDY    72  50  45 E3        30.01F
SPIRIT OF STL  CLOUDY    69  56  62 SE3       29.99F
COLUMBIA       CLOUDY    69  52  54 S12       29.99R
JEFFERSON CITY CLOUDY    65  53  65 SE6       29.99R
ROLLA          MOSUNNY   69  53  56 S7        30.00R
SPRINGFIELD    MOSUNNY   68  50  52 S13       29.98R
BRANSON        CLOUDY    64  54  68 SE8       30.01R
JOPLIN         PTSUNNY   68  55  63 S12       29.93S
WEST PLAINS    SUNNY     69  48  47 SE8       30.03S

$$

IAZ060-094-KSZ022-034>040-054-083-096-NEZ052-066-093-231500-
...KANSAS...SOUTHEAST NEBRASKA AND IOWA...

CITY           SKY/WX    TMP DP  RH WIND       PRES   REMARKS
TOPEKA         CLOUDY    68  58  70 S6        29.90R
MANHATTAN      CLOUDY    71  62  73 S6        29.85S
EMPORIA        CLOUDY    67  59  75 S14       29.87S
CHANUTE        PTSUNNY   68  57  68 S9        29.91R
WICHITA        TSTM      67  64  90 S16       29.84R FOG
OMAHA          PTSUNNY   71  62  73 S12       29.81S
LINCOLN        PTSUNNY   71  63  75 S18G26    29.82R
FALLS CITY     CLOUDY    70  61  73 S14       29.85S
LAMONI         CLOUDY    66  56  70 S10       29.92R
DES MOINES     CLOUDY    70  54  56 S14       29.89S

$$





USA.gov is the U.S. government's official web portal to all federal, state and local government web resources and services.